Weather in Calabar

Nigeria     4°58′32″N   8°20′43″E
temp.,
°C
wind,
m/s
gust,
m/s
humid.,
%
clouds,
%
prec.,
mm/h
press.,
hPa
HPBL,
m
24 july, sat
sat2401:00+22sse0098100 4.6 101517
04:00+22w119573 0.1 101416
07:00+22w1596100 0.1 1015156
10:00+25w248597 0.5 1016466
13:00+28wnw347381 2.8 10141121
16:00+27wsw247788 2.2 1012644
19:00+23sse229074 3.1 101432
22:00+23ssw1292100 0.1 101646
25 july, sun
sun2501:00+22w1191100 0.1 101513
04:00+22nw019195 0.0 101412
07:00+22nw119197 0.0 101616
10:00+24wnw1283100 0.0 1016289
13:00+27sw136892 0.0 1015858
16:00+29sw236099 0.1 10121540
19:00+24s3784100 0.2 1013247
22:00+22ssw118985 0.0 101613
26 july, mon
mon2601:00+22ssw1189100 0.0 101517
04:00+22wsw1189100 0.0 101420
07:00+22wnw119087 0.0 101624
10:00+27wsw117065 0.0 1016786
13:00+30nw235427 0.0 10141646
16:00+29se125787 0.1 1012895
19:00+24s2686100 0.3 1013154
22:00+23ssw1487100 0.0 1015113
27 july, tue
tue2701:00+23ssw138885 0.0 101497
04:00+23sw1287100 0.0 101345
07:00+23wsw148891 0.0 1014134
10:00+28wsw236536 0.1 10151118
13:00+31sw2347100 0.1 10132079
16:00+29wsw2357100 0.1 10121351
19:00+24s2779100 0.1 1013209
22:00+23sw1484100 0.0 1016127
28 july, wed
wed2801:00+23ssw148396 0.0 1014136
04:00+22sw1187100 0.0 101312
07:00+22nnw118748 0.0 101421
10:00+28wnw126110 0.0 1016889
13:00+31w12476 0.0 10131681
16:00+29sw3458100 0.0 1011999
19:00+26ssw237697 0.0 101258
22:00+24ssw1186100 0.0 101516